Weather History for Chicopee, MA

Change the Weather History Date:

Thursday, December 5, 2013

  Actual Average Record
Temperature  
Mean Temperature 42 °F -  
Max Temperature 51 °F 39 °F 68 °F (2001)
Min Temperature 32 °F 24 °F 10 °F (2003)
Degree Days  
Heating Degree Days 24    
Moisture  
Dew Point 41 °F    
Average Humidity 97    
Maximum Humidity 100    
Minimum Humidity 85    
Precipitation  
Precipitation 0.04 in - - ()
Sea Level Pressure  
Sea Level Pressure 30.03 in    
Wind  
Wind Speed 3 mph (WSW)    
Max Wind Speed 10 mph    
Max Gust Speed -    
Visibility 3 miles    
Events Fog , Rain    
Averages and records for this station are not official NWS values.
T = Trace of Precipitation, MM = Missing Value Source: NWS Daily Summary

Daily Weather History Graph

Daily Weather History Graph

Search for Another Location

Airport:

Trip Planner

Search our weather history database for the weather conditions in past years. The results will help you decide how hot, cold, wet, or windy it might be!

Date:

Astronomy

Dec. 05, 2013 Rise Set
Actual Time 7:03 AM EST 4:18 PM EST
Civil Twilight 6:31 AM EST 4:49 PM EST
Nautical Twilight 5:56 AM EST 5:24 PM EST
Astronomical Twilight 5:23 AM EST 5:58 PM EST
Moon 9:19 AM EST (12/5) 7:37 PM EST (12/5)
Length of Visible Light 10h 17m
Length of Day
9h 14m
Waxing Crescent, 10% of the Moon is Illuminated
Dec 5
Waxing Crescent
Dec 9
First Quarter
Dec 17
Full
Dec 25
Last Quarter
Jan 1
New

Hourly Weather History & Observations

Time (EST) Temp. Windchill Dew Point Humidity Pressure Visibility Wind Dir Wind Speed Gust Speed Precip Events Conditions
12:58 AM 32.4 °F - 31.8 °F 98% 30.19 in 10.0 mi NE 1.2 mph - N/A   Overcast
1:58 AM 33.3 °F - 31.3 °F 92% 30.20 in 10.0 mi NE 2.3 mph - N/A   Overcast
2:58 AM 34.0 °F - 31.1 °F 89% 30.19 in 10.0 mi WNW 1.2 mph - N/A   Overcast
3:23 AM 33.8 °F - 32.0 °F 93% 30.16 in 10.0 mi WNW 1.2 mph - N/A   Overcast
3:58 AM 35.1 °F 32.2 °F 31.3 °F 86% 30.18 in 10.0 mi NE 3.5 mph - N/A   Overcast
4:03 AM 35.6 °F 32.8 °F 32.0 °F 87% 30.15 in 10.0 mi ENE 3.5 mph - N/A   Overcast
4:58 AM 35.2 °F - 31.6 °F 87% 30.18 in 10.0 mi North 2.3 mph - N/A   Overcast
5:54 AM 35.6 °F - 32.0 °F 87% 30.14 in 10.0 mi North 2.3 mph - N/A   Overcast
5:58 AM 35.6 °F - 31.6 °F 85% 30.17 in 10.0 mi North 2.3 mph - N/A   Overcast
6:26 AM 35.6 °F 31.7 °F 32.0 °F 87% 30.13 in 10.0 mi North 4.6 mph - N/A   Overcast
6:52 AM 35.6 °F 32.8 °F 32.0 °F 87% 30.14 in 10.0 mi NNW 3.5 mph - N/A   Overcast
6:58 AM 36.1 °F 33.5 °F 32.4 °F 86% 30.17 in 10.0 mi NNW 3.5 mph - N/A   Overcast
7:07 AM 35.6 °F - 32.0 °F 87% 30.14 in 10.0 mi NNW 2.3 mph - N/A   Overcast
7:17 AM 35.6 °F 32.8 °F 32.0 °F 87% 30.13 in 9.0 mi NNE 3.5 mph - N/A   Overcast
7:23 AM 35.6 °F 32.8 °F 32.0 °F 87% 30.14 in 8.0 mi North 3.5 mph - N/A   Overcast
7:26 AM 35.6 °F 32.8 °F 33.8 °F 93% 30.14 in 7.0 mi North 3.5 mph - N/A   Overcast
7:58 AM 35.2 °F 32.4 °F 34.7 °F 98% 30.16 in 2.5 mi North 3.5 mph - 0.00 in   Light Drizzle
8:58 AM 35.6 °F 31.7 °F 35.6 °F 100% 30.14 in 2.0 mi North 4.6 mph - 0.00 in   Light Drizzle
9:34 AM 37.4 °F - 35.6 °F 93% 30.11 in 1.8 mi NW 2.3 mph - N/A   Light Drizzle
9:58 AM 36.9 °F 34.3 °F 36.5 °F 99% 30.14 in 1.8 mi North 3.5 mph - 0.00 in   Light Drizzle
10:12 AM 37.4 °F 33.8 °F 37.4 °F 100% 30.12 in 2.0 mi NNW 4.6 mph - N/A   Overcast
10:28 AM 37.4 °F - 37.4 °F 100% 30.12 in 1.8 mi North 2.3 mph - N/A   Overcast
10:49 AM 37.4 °F 34.9 °F 37.4 °F 100% 30.11 in 2.0 mi NE 3.5 mph - N/A   Overcast
10:58 AM 37.8 °F 35.3 °F 37.4 °F 99% 30.14 in 2.0 mi NNE 3.5 mph - 0.00 in   Light Drizzle
11:31 AM 39.2 °F - 39.2 °F 100% 30.08 in 2.0 mi North 2.3 mph - N/A   Overcast
11:58 AM 39.0 °F - 38.8 °F 99% 30.09 in 0.8 mi NW 2.3 mph - N/A   Overcast
12:15 PM 39.2 °F 35.0 °F 39.2 °F 100% 30.05 in 0.5 mi North 5.8 mph - N/A Fog Fog
12:58 PM 39.6 °F - 39.4 °F 99% 30.06 in 0.5 mi NW 2.3 mph - 0.00 in Fog , Rain Light Rain
1:31 PM 39.2 °F 37.0 °F 39.2 °F 100% 30.02 in 0.2 mi ESE 3.5 mph - N/A Fog Fog
1:58 PM 40.6 °F - 40.5 °F 99% 30.01 in 0.2 mi SE 2.3 mph - 0.01 in Fog Fog
2:39 PM 41.0 °F 38.0 °F 39.2 °F 93% 30.01 in 0.2 mi NNW 4.6 mph - N/A Fog Fog
2:58 PM 41.0 °F - 41.0 °F 100% 30.04 in 0.2 mi NNE 1.2 mph - N/A Fog Fog
2:59 PM 41.0 °F - 41.0 °F 100% 30.01 in 0.2 mi North 1.2 mph - N/A Fog Fog
3:11 PM 41.0 °F - 41.0 °F 100% 30.01 in 0.2 mi Calm Calm - N/A Fog Fog
3:14 PM 41.0 °F - 41.0 °F 100% 30.01 in 0.2 mi Calm Calm - N/A Fog Fog
3:58 PM 40.8 °F - 40.6 °F 99% 30.03 in 0.2 mi SSE 2.3 mph - N/A Fog Fog
4:21 PM 41.0 °F - 41.0 °F 100% 30.00 in 0.2 mi Calm Calm - N/A Fog Fog
4:36 PM 41.0 °F - 41.0 °F 100% 30.00 in 0.2 mi Calm Calm - N/A Fog Fog
4:58 PM 40.6 °F - 40.5 °F 99% 30.03 in 0.2 mi Calm Calm - N/A Fog Fog
5:50 PM 41.0 °F - 41.0 °F 100% 30.01 in 0.2 mi NE 1.2 mph - N/A Fog Fog
5:58 PM 40.5 °F - 40.3 °F 99% 30.04 in 0.2 mi Calm Calm - N/A Fog Fog
6:09 PM 41.0 °F - 41.0 °F 100% 30.01 in 0.2 mi ENE 1.2 mph - N/A Fog , Rain Light Rain
6:46 PM 41.0 °F - 41.0 °F 100% 30.00 in 0.2 mi SSE 2.3 mph - N/A Fog , Rain Light Rain
6:49 PM 41.0 °F - 41.0 °F 100% 30.00 in 0.2 mi South 2.3 mph - N/A Fog , Rain Light Rain
6:53 PM 41.0 °F - 41.0 °F 100% 30.00 in 0.2 mi SSE 2.3 mph - N/A Fog , Rain Light Rain
6:58 PM 41.0 °F - 41.0 °F 100% 30.03 in 0.2 mi Calm Calm - 0.01 in Fog , Rain Light Rain
7:04 PM 41.0 °F - 41.0 °F 100% 29.99 in 0.5 mi Calm Calm - N/A Fog , Rain Light Rain
7:25 PM 42.8 °F - 41.0 °F 93% 29.98 in 0.5 mi South 2.3 mph - N/A Fog , Rain Light Rain
7:42 PM 42.8 °F 39.3 °F 41.0 °F 93% 29.98 in 0.5 mi South 5.8 mph - N/A Fog , Rain Light Rain
7:48 PM 42.8 °F 38.6 °F 42.8 °F 100% 29.97 in 0.8 mi SSE 6.9 mph - N/A Rain Light Rain
7:54 PM 42.8 °F 38.6 °F 42.8 °F 100% 29.96 in 1.0 mi SSE 6.9 mph - N/A Rain Light Rain
7:55 PM 42.8 °F 38.6 °F 42.8 °F 100% 29.95 in 1.2 mi SSE 6.9 mph - N/A Rain Light Rain
8:02 PM 42.8 °F 40.1 °F 42.8 °F 100% 29.93 in 1.5 mi Variable 4.6 mph - N/A Rain Light Rain
8:25 PM 42.8 °F 38.0 °F 42.8 °F 100% 29.93 in 1.2 mi SSW 8.1 mph - N/A   Overcast
8:38 PM 46.4 °F 44.3 °F 46.4 °F 100% 29.92 in 1.5 mi SSW 4.6 mph - N/A Rain Light Rain
8:57 PM 46.6 °F - 46.4 °F 99% 29.94 in 1.5 mi WSW 8.1 mph - 0.01 in   Light Drizzle
9:18 PM 44.6 °F 40.7 °F 44.6 °F 100% 29.91 in 0.8 mi SSW 6.9 mph - N/A Rain Light Rain
9:46 PM 46.4 °F 43.5 °F 44.6 °F 93% 29.94 in 0.8 mi WNW 5.8 mph - N/A   Mist
9:50 PM 46.4 °F 43.5 °F 44.6 °F 93% 29.94 in 0.5 mi West 5.8 mph - N/A Fog Fog
9:55 PM 46.4 °F 43.5 °F 44.6 °F 93% 29.94 in 0.5 mi West 5.8 mph - N/A Fog Light Drizzle
9:58 PM 45.5 °F 42.5 °F 45.3 °F 99% 29.96 in 0.5 mi West 5.8 mph - 0.00 in Fog Light Drizzle
10:23 PM 46.4 °F 44.3 °F 46.4 °F 100% 29.95 in 0.5 mi SW 4.6 mph - N/A Fog , Rain Light Rain
10:30 PM 48.2 °F - 48.2 °F 100% 29.95 in 0.5 mi SW 6.9 mph - N/A Fog Light Drizzle
10:58 PM 49.6 °F - 49.3 °F 99% 29.96 in 0.5 mi SSW 6.9 mph - 0.01 in Fog Fog
11:01 PM 50.0 °F - 50.0 °F 100% 29.93 in 0.8 mi South 6.9 mph - N/A   Mist
11:14 PM 50.0 °F - 50.0 °F 100% 29.93 in 1.0 mi South 5.8 mph - N/A   Mist
11:16 PM 51.8 °F - 50.0 °F 94% 29.93 in 1.0 mi South 6.9 mph - N/A   Overcast
11:18 PM 51.8 °F - 50.0 °F 94% 29.93 in 1.0 mi South 6.9 mph - N/A   Overcast
11:19 PM 51.8 °F - 50.0 °F 94% 29.94 in 1.2 mi South 8.1 mph - N/A   Overcast
11:20 PM 51.8 °F - 51.8 °F 100% 29.94 in 1.2 mi South 8.1 mph - N/A   Overcast
11:21 PM 51.8 °F - 51.8 °F 100% 29.94 in 1.5 mi South 8.1 mph - N/A   Overcast
11:23 PM 51.8 °F - 51.8 °F 100% 29.94 in 1.5 mi South 9.2 mph - N/A   Overcast
11:24 PM 51.8 °F - 51.8 °F 100% 29.94 in 1.8 mi South 9.2 mph - N/A   Overcast
11:26 PM 51.8 °F - 51.8 °F 100% 29.93 in 2.0 mi South 8.1 mph - N/A   Overcast
11:46 PM 51.8 °F - 51.8 °F 100% 29.92 in 1.8 mi South 9.2 mph - N/A   Overcast
11:50 PM 51.8 °F - 51.8 °F 100% 29.92 in 1.5 mi South 10.4 mph - N/A   Overcast
11:51 PM 51.8 °F - 51.8 °F 100% 29.91 in 1.5 mi South 10.4 mph - N/A   Overcast
11:56 PM 51.8 °F - 51.8 °F 100% 29.92 in 1.5 mi South 9.2 mph - N/A   Overcast
11:57 PM 51.8 °F - 51.8 °F 100% 29.92 in 1.2 mi South 9.2 mph - N/A   Overcast
11:58 PM 51.8 °F - 51.8 °F 100% 29.94 in 1.2 mi South 9.2 mph - N/A   Overcast